• In United Kingdom
  • List of Countries
  • For 7 days
  • Water Temperature
  • Satellite Maps
  • Weather Map
  • Weather Widgets
  • user-avatar
    Login

    Hourly Weather Bururi

    Today, 25 September, Tuesday

    Time Temperature Precipitation Wind Pressure Humidity
    00:00 +19°C° 0 mm 2 mps 617 mmHg 54%
    01:00 +19°C° 0 mm 2 mps 616 mmHg 55%
    02:00 +18°C° 0 mm 2 mps 616 mmHg 55%
    03:00 +18°C° 0 mm 2 mps 616 mmHg 56%
    04:00 +18°C° 0 mm 2 mps 616 mmHg 56%
    05:00 +18°C° 0 mm 1 mps 616 mmHg 57%
    06:00 +19°C° 0 mm 2 mps 617 mmHg 51%
    07:00 +21°C° 0 mm 2 mps 618 mmHg 46%
    08:00 +24°C° 0 mm 2 mps 619 mmHg 40%
    09:00 +26°C° 0 mm 2 mps 620 mmHg 36%
    10:00 +27°C° 0 mm 3 mps 620 mmHg 33%
    11:00 +28°C° 0 mm 3 mps 620 mmHg 30%
    12:00 +28°C° 0 mm 3 mps 619 mmHg 30%
    13:00 +29°C° 0 mm 3 mps 618 mmHg 29%
    14:00 +29°C° 0 mm 3 mps 618 mmHg 29%
    15:00 +28°C° 0 mm 3 mps 617 mmHg 30%
    16:00 +27°C° 0 mm 3 mps 617 mmHg 32%
    17:00 +27°C° 0 mm 2 mps 616 mmHg 34%
    18:00 +25°C° 0 mm 2 mps 617 mmHg 38%
    19:00 +24°C° 0 mm 2 mps 617 mmHg 41%
    20:00 +21°C° 0 mm 2 mps 617 mmHg 45%
    21:00 +21°C° 0 mm 2 mps 617 mmHg 46%
    22:00 +20°C° 0 mm 2 mps 617 mmHg 47%
    23:00 +20°C° 0 mm 2 mps 617 mmHg 48%

    Tomorrow, 26 September, Wednesday

    Time Temperature Precipitation Wind Pressure Humidity
    00:00 +20°C° 0 mm 2 mps 617 mmHg 49%
    01:00 +19°C° 0 mm 2 mps 616 mmHg 50%
    02:00 +19°C° 0 mm 2 mps 616 mmHg 51%
    03:00 +18°C° 0 mm 2 mps 616 mmHg 52%
    04:00 +18°C° 0 mm 2 mps 616 mmHg 52%
    05:00 +19°C° 0 mm 1 mps 616 mmHg 53%
    06:00 +19°C° 0 mm 2 mps 617 mmHg 49%
    07:00 +21°C° 0 mm 2 mps 618 mmHg 45%
    08:00 +23°C° 0 mm 2 mps 619 mmHg 41%
    09:00 +26°C° 0 mm 2 mps 619 mmHg 37%
    10:00 +28°C° 0 mm 3 mps 620 mmHg 33%
    11:00 +30°C° 0 mm 3 mps 621 mmHg 29%
    12:00 +30°C° 0 mm 3 mps 620 mmHg 29%
    13:00 +29°C° 0 mm 3 mps 619 mmHg 28%
    14:00 +29°C° 0 mm 3 mps 618 mmHg 28%
    15:00 +28°C° 0 mm 3 mps 617 mmHg 30%
    16:00 +27°C° 0 mm 3 mps 617 mmHg 32%
    17:00 +27°C° 0 mm 2 mps 616 mmHg 34%
    18:00 +25°C° 0 mm 2 mps 616 mmHg 37%
    19:00 +24°C° 0 mm 2 mps 616 mmHg 41%
    20:00 +21°C° 0 mm 2 mps 617 mmHg 44%
    21:00 +22°C° 0 mm 1 mps 617 mmHg 45%
    22:00 +22°C° 0 mm 1 mps 617 mmHg 46%
    23:00 +21°C° 0 mm 1 mps 617 mmHg 47%

    Day after tomorrow, 27 September, Thursday

    Time Temperature Precipitation Wind Pressure Humidity
    00:00 +21°C° 0 mm 1 mps 617 mmHg 48%
    01:00 +20°C° 0 mm 2 mps 616 mmHg 49%
    02:00 +19°C° 0 mm 2 mps 616 mmHg 50%
    03:00 +19°C° 0 mm 2 mps 616 mmHg 51%
    04:00 +19°C° 0 mm 2 mps 616 mmHg 51%
    05:00 +20°C° 0 mm 1 mps 616 mmHg 52%
    06:00 +20°C° 0 mm 2 mps 617 mmHg 49%
    07:00 +23°C° 0 mm 2 mps 618 mmHg 45%
    08:00 +24°C° 0 mm 3 mps 619 mmHg 42%
    09:00 +26°C° 0 mm 3 mps 619 mmHg 38%
    10:00 +28°C° 0 mm 3 mps 620 mmHg 33%
    11:00 +31°C° 0 mm 3 mps 620 mmHg 29%
    12:00 +30°C° 0 mm 3 mps 619 mmHg 29%
    13:00 +30°C° 0 mm 3 mps 618 mmHg 30%
    14:00 +29°C° 0 mm 3 mps 617 mmHg 30%
    15:00 +28°C° 0.1 mm 3 mps 616 mmHg 33%
    16:00 +27°C° 0.1 mm 3 mps 616 mmHg 35%
    17:00 +26°C° 0.1 mm 2 mps 616 mmHg 38%
    18:00 +25°C° 0.3 mm 2 mps 616 mmHg 42%
    19:00 +24°C° 0.3 mm 2 mps 616 mmHg 46%
    20:00 +23°C° 0.3 mm 2 mps 617 mmHg 50%
    21:00 +21°C° 0.1 mm 2 mps 617 mmHg 51%
    22:00 +21°C° 0.1 mm 2 mps 617 mmHg 52%
    23:00 +20°C° 0.1 mm 2 mps 617 mmHg 53%

    28 September, Friday

    Time Temperature Precipitation Wind Pressure Humidity
    00:00 +20°C° 0 mm 2 mps 616 mmHg 54%
    01:00 +20°C° 0 mm 1 mps 615 mmHg 55%
    02:00 +20°C° 0 mm 1 mps 615 mmHg 56%
    03:00 +20°C° 0 mm 1 mps 615 mmHg 56%
    04:00 +20°C° 0 mm 1 mps 615 mmHg 57%
    05:00 +19°C° 0 mm 1 mps 616 mmHg 57%
    06:00 +20°C° 0 mm 2 mps 617 mmHg 54%
    07:00 +21°C° 0 mm 2 mps 618 mmHg 51%
    08:00 +22°C° 0 mm 3 mps 619 mmHg 48%
    09:00 +25°C° 0.1 mm 3 mps 619 mmHg 44%
    10:00 +27°C° 0.1 mm 3 mps 620 mmHg 40%
    11:00 +29°C° 0.1 mm 3 mps 620 mmHg 36%
    12:00 +28°C° 0.2 mm 3 mps 619 mmHg 37%
    13:00 +27°C° 0.2 mm 3 mps 617 mmHg 39%
    14:00 +27°C° 0.2 mm 3 mps 616 mmHg 41%
    15:00 +26°C° 0.2 mm 3 mps 616 mmHg 42%
    16:00 +26°C° 0.2 mm 2 mps 616 mmHg 44%
    17:00 +25°C° 0.2 mm 2 mps 616 mmHg 45%
    18:00 +24°C° 0.3 mm 2 mps 616 mmHg 49%
    19:00 +23°C° 0.3 mm 2 mps 616 mmHg 53%
    20:00 +21°C° 0.3 mm 2 mps 616 mmHg 57%
    21:00 +20°C° 0.1 mm 2 mps 616 mmHg 58%
    22:00 +20°C° 0.1 mm 2 mps 616 mmHg 59%
    23:00 +19°C° 0.1 mm 2 mps 616 mmHg 60%

    29 September, Saturday

    Time Temperature Precipitation Wind Pressure Humidity
    00:00 +20°C° 0 mm 1 mps 616 mmHg 60%
    01:00 +20°C° 0 mm 1 mps 615 mmHg 60%
    02:00 +20°C° 0 mm 1 mps 615 mmHg 60%
    03:00 +20°C° 0 mm 1 mps 615 mmHg 61%
    04:00 +20°C° 0 mm 1 mps 616 mmHg 61%
    05:00 +18°C° 0 mm 2 mps 616 mmHg 62%
    06:00 +20°C° 0.1 mm 2 mps 617 mmHg 59%
    07:00 +21°C° 0.1 mm 2 mps 618 mmHg 56%
    08:00 +23°C° 0.1 mm 2 mps 619 mmHg 53%
    09:00 +24°C° 0.2 mm 3 mps 619 mmHg 50%
    10:00 +26°C° 0.2 mm 3 mps 619 mmHg 46%
    11:00 +27°C° 0.2 mm 3 mps 619 mmHg 43%
    12:00 +27°C° 0.3 mm 3 mps 618 mmHg 43%
    13:00 +26°C° 0.3 mm 2 mps 617 mmHg 44%
    14:00 +26°C° 0.3 mm 2 mps 616 mmHg 44%
    15:00 +25°C° 0.3 mm 2 mps 616 mmHg 47%
    16:00 +25°C° 0.3 mm 2 mps 616 mmHg 50%
    17:00 +24°C° 0.3 mm 2 mps 616 mmHg 53%
    18:00 +23°C° 0.4 mm 2 mps 616 mmHg 56%
    19:00 +21°C° 0.4 mm 2 mps 616 mmHg 58%
    20:00 +21°C° 0.4 mm 2 mps 617 mmHg 61%
    21:00 +20°C° 0.1 mm 2 mps 617 mmHg 62%
    22:00 +20°C° 0.1 mm 2 mps 617 mmHg 63%
    23:00 +19°C° 0.1 mm 2 mps 617 mmHg 64%

    30 September, Sunday

    Time Temperature Precipitation Wind Pressure Humidity
    00:00 +19°C° 0 mm 2 mps 616 mmHg 65%
    01:00 +18°C° 0 mm 2 mps 616 mmHg 66%
    02:00 +19°C° 0 mm 1 mps 615 mmHg 67%
    03:00 +19°C° 0 mm 1 mps 615 mmHg 67%
    04:00 +18°C° 0 mm 1 mps 616 mmHg 68%
    05:00 +18°C° 0 mm 1 mps 616 mmHg 68%
    06:00 +20°C° 0 mm 1 mps 617 mmHg 61%
    07:00 +22°C° 0 mm 1 mps 618 mmHg 55%
    08:00 +23°C° 0 mm 1 mps 619 mmHg 48%
    09:00 +25°C° 0 mm 2 mps 619 mmHg 44%
    10:00 +27°C° 0 mm 3 mps 619 mmHg 40%
    11:00 +28°C° 0 mm 3 mps 619 mmHg 36%
    12:00 +28°C° 0.1 mm 3 mps 618 mmHg 36%
    13:00 +28°C° 0.1 mm 3 mps 618 mmHg 36%
    14:00 +27°C° 0.1 mm 3 mps 617 mmHg 37%
    15:00 +27°C° 0.1 mm 3 mps 617 mmHg 37%
    16:00 +27°C° 0.1 mm 3 mps 616 mmHg 38%
    17:00 +26°C° 0.1 mm 2 mps 616 mmHg 39%
    18:00 +25°C° 0 mm 2 mps 616 mmHg 44%
    19:00 +23°C° 0 mm 2 mps 616 mmHg 49%
    20:00 +20°C° 0 mm 2 mps 616 mmHg 54%
    21:00 +20°C° 0 mm 2 mps 616 mmHg 54%
    22:00 +20°C° 0 mm 2 mps 616 mmHg 54%
    23:00 +20°C° 0 mm 2 mps 616 mmHg 55%
    Show more